This demonstration page uses our WeatherBlox Daily Observations layout. Learn more.

39.08367, -84.50855

Hourly Observations for May 25, 2019

Temp ( °F °C ) Dew Point ( °F °C ) Humidity (%) Winds ( mph kmh ) Pressure ( in mb ) Visibility ( mi km ) Precip ( " mm )
12:34 am 00:34 Clear with Mist and Fog 65 18.3 64 17.8 97 97 Calm 30 1016 2 3.218688 0 0
12:44 am 00:44 Clear with Mist and Fog 66 18.9 65 18.3 96 96 Calm 30.03 1017 6 9.656064 0 0
12:53 am 00:53 Clear 65 18.3 64 17.8 97 97 Calm 30.03 1017 8 12.874752 0 0
1:53 am 01:53 Clear with Mist and Fog 64 17.8 63 17.2 96 96 S 3 6 30.03 1017 5 8.04672 0 0
2:17 am 02:17 Clear with Mist and Fog 65 18.3 64 17.8 97 97 Calm 30.03 1017 2.5 4.02336 0 0
2:24 am 02:24 Clear with Mist and Fog 65 18.3 64 17.8 97 97 Calm 30.03 1017 5 8.04672 0 0
2:40 am 02:40 Clear with Mist and Fog 64 17.8 63 17.2 96 96 Calm 30.03 1017 1.5 2.414016 0 0
2:47 am 02:47 Clear with Fog 64 18 64 18 100 100 Calm 30.03 1017 0.25 0.402336 0 0
2:48 am 02:48 Clear with Fog 65 18.3 64 17.8 97 97 Calm 30.03 1017 0.25 0.402336 0 0
2:53 am 02:53 Mostly Cloudy with Fog 65 18.3 64 17.8 97 97 SSW 3 6 30.03 1017 0.25 0.402336 0 0
3:04 am 03:04 Mostly Cloudy with Fog 63 17.2 63 17.2 100 100 Calm 30.03 1017 0.5 0.804672 0 0
3:08 am 03:08 Mostly Cloudy with Mist and Fog 64 17.8 63 17.2 96 96 Calm 30.03 1017 1 1.609344 0 0
3:18 am 03:18 Mostly Clear with Mist and Fog 65 18.3 65 18.3 100 100 Calm 30.03 1017 2 3.218688 0 0
3:26 am 03:26 Clear with Mist and Fog 64 17.8 64 17.8 100 100 Calm 30.03 1017 0.75 1.207008 0 0
3:37 am 03:37 Clear with Fog 64 17.8 63 17.2 96 96 Calm 30.03 1017 0.25 0.402336 0 0
3:44 am 03:44 Mostly Cloudy with Mist and Fog 64 17.8 63 17.2 96 96 Calm 30.03 1017 0.75 1.207008 0 0
3:49 am 03:49 Mostly Cloudy with Fog 63 17 63 17 100 100 Calm 30.03 1017 0.25 0.402336 0 0
3:53 am 03:53 Mostly Cloudy with Fog 63 17.2 63 17.2 100 100 Calm 30.03 1017 0.25 0.402336 0 0
4:00 am 04:00 Mostly Cloudy with Mist and Fog 64 17.8 63 17.2 96 96 Calm 30.03 1017 1 1.609344 0 0
4:02 am 04:02 Partly Cloudy with Mist and Fog 64 17.8 63 17.2 96 96 SSE 3 6 30.03 1017 2 3.218688 0 0
4:09 am 04:09 Partly Cloudy with Mist and Fog 64 17.8 64 17.8 100 100 Calm 30.03 1017 4 6.437376 0 0
4:28 am 04:28 Partly Cloudy with Mist and Fog 64 17.8 64 17.8 100 100 Calm 30.03 1017 1.75 2.816352 0 0
4:45 am 04:45 Mostly Cloudy with Mist and Fog 64 17.8 63 17.2 96 96 Calm 30.03 1017 3 4.828032 0 0
4:53 am 04:53 Mostly Cloudy with Mist and Fog 64 17.8 64 17.8 100 100 Calm 30.03 1017 3 4.828032 0 0
5:09 am 05:09 Mostly Cloudy with Mist and Fog 63 17.2 62 16.7 97 97 Calm 30.03 1017 1.5 2.414016 0 0
5:18 am 05:18 Mostly Clear with Fog 63 17.2 63 17.2 100 100 Calm 30.03 1017 0.5 0.804672 0 0
5:30 am 05:30 Mostly Clear with Fog 64 17.8 63 17.2 96 96 Calm 30 1016 0.25 0.402336 0 0
5:44 am 05:44 Mostly Cloudy with Fog 63 17.2 63 17.2 100 100 Calm 30 1016 0.5 0.804672 0 0
5:53 am 05:53 Mostly Cloudy with Fog 63 17.2 63 17.2 100 100 Calm 30 1016 0.5 0.804672 0 0
6:00 am 06:00 Mostly Cloudy with Fog 63 17.2 63 17.2 100 100 Calm 30 1016 0.25 0.402336 0 0
6:11 am 06:11 Mostly Cloudy with Mist and Fog 64 17.8 63 17.2 96 96 Calm 30.03 1017 1 1.609344 0 0
6:14 am 06:14 Mostly Clear with Mist and Fog 64 17.8 63 17.2 96 96 Calm 30.03 1017 2 3.218688 0 0
6:32 am 06:32 Partly Cloudy with Mist and Fog 64 17.8 63 17.2 96 96 SSW 3 6 30.03 1017 3 4.828032 0 0
6:53 am 06:53 Partly Cloudy with Mist and Fog 64 17.8 64 17.8 100 100 SW 3 6 30.03 1017 5 8.04672 0 0
7:53 am 07:53 Cloudy with Mist and Fog 67 19.4 66 18.9 97 97 Calm 30.06 1018 6 9.656064 0 0
8:53 am 08:53 Mostly Cloudy 69 20.6 67 19.4 93 93 Calm 30.06 1018 7 11.265408 0 0
9:53 am 09:53 Mostly Sunny 75 23.9 69 20.6 82 82 SSW 7 11 30.06 1018 10 16.09344 0 0
10:53 am 10:53 Sunny 81 27.2 69 20.6 67 67 WSW 10 17 30.03 1017 10 16.09344 0 0
11:53 am 11:53 Sunny 85 29.4 70 21.1 61 61 WSW 10 17 30.03 1017 10 16.09344 0 0
12:53 pm 12:53 Partly Cloudy 84 28.9 67 19.4 57 57 SW 13 20 30 1016 10 16.09344 0 0
1:53 pm 13:53 Mostly Sunny 87 30.6 66 18.9 50 50 SW 17 28 30 1016 10 16.09344 0 0
2:53 pm 14:53 Sunny 87 30.6 64 17.8 46 46 SW 16 26 30 1016 10 16.09344 0 0
3:53 pm 15:53 Partly Cloudy 86 30 63 17.2 46 46 SSW 17 28 29.97 1015 10 16.09344 0 0
4:53 pm 16:53 Partly Cloudy 86 30 62 16.7 45 45 SSW 17 28 30 1016 10 16.09344 0 0
5:53 pm 17:53 Cloudy 82 27.8 63 17.2 53 53 WNW 15 24 30.03 1017 8 12.874752 0 0
6:02 pm 18:02 Cloudy with Light Rain 74 23.3 67 19.4 79 79 WNW 7 11 30.03 1017 2 3.218688 0.07 1.778
6:10 pm 18:10 Cloudy with Light Rain 74 23.3 67 19.4 79 79 WNW 9 15 30.03 1017 8 12.874752 0.08 2.032
6:53 pm 18:53 Sunny 76 24.4 69 20.6 79 79 ENE 3 6 30.03 1017 10 16.09344 0.11 2.794
7:53 pm 19:53 Sunny 74 23.3 72 22.2 94 94 S 3 6 30.03 1017 9 14.484096 0 0
8:53 pm 20:53 Clear with Mist and Fog 72 22.2 70 21.1 94 94 SSW 5 7 30.03 1017 6 9.656064 0 0
9:53 pm 21:53 Clear 70 21.1 69 20.6 97 97 Calm 30 1016 8 12.874752 0 0
10:41 pm 22:41 Mostly Clear with Mist and Fog 70 21.1 69 20.6 97 97 Calm 30.03 1017 2 3.218688 0 0
10:53 pm 22:53 Partly Cloudy with Mist and Fog 70 21.1 69 20.6 97 97 Calm 30.03 1017 2.5 4.02336 0 0
10:59 pm 22:59 Partly Cloudy with Mist and Fog 70 21.1 69 20.6 97 97 Calm 30.03 1017 0.75 1.207008 0 0
11:03 pm 23:03 Partly Cloudy with Fog 69 20.6 69 20.6 100 100 Calm 30.03 1017 0.25 0.402336 0 0
11:15 pm 23:15 Partly Cloudy with Mist and Fog 69 20.6 68 20 96 96 Calm 30.03 1017 1 1.609344 0 0
11:36 pm 23:36 Clear with Mist and Fog 70 21.1 68 20 93 93 Calm 30.03 1017 2.5 4.02336 0 0
11:42 pm 23:42 Clear with Mist and Fog 69 20.6 68 20 96 96 Calm 30.03 1017 0.75 1.207008 0 0
11:53 pm 23:53 Clear with Mist and Fog 68 20 67 19.4 96 96 Calm 30.03 1017 1.5 2.414016 0 0

Powered by AerisWeather